カタログに戻る

STARLINK-35776

運用中通信VLEO
NORAD 66282·PAYLOAD·🇺🇸 United States

打ち上げ Oct 31, 2025 から Vandenberg Space Force Base

Loading…

次のパス (今後24時間)

TLE

最新Source: CelesTrak SupGP

元期: Sep 14, 2026, 15:40 UTC

1 66282C 25247T   26257.65326389 -.00079923  00000+0 -23619-2 0  2579
2 66282  53.1606  30.7847 0001281  85.9437   9.4297 15.34423472    11

AllMySatでSTARLINK-35776をリアルタイム追跡

Download on the App Store